Regional Weather Roundup
Issued by NWS

Home | Current Version | Previous Version | Graphics & Text | Print | Product List | Glossary On
Versions: 1 2 3 4 5 6 7 8 9 10 11 12 13 14 15 16 17 18 19 20 21 22 23 24 25 26 27 28 29 30 31 32 33 34 35 36 37 38 39 40 41 42 43 44 45 46 47 48 49 50
000
ASUS43 KMKX 301711
RWRWI

WISCONSIN REGIONAL WEATHER ROUNDUP
NATIONAL WEATHER SERVICE MILWAUKEE/SULLIVAN WI
1200 PM CDT SAT AUG 30 2014

NOTE: "FAIR" INDICATES FEW OR NO CLOUDS BELOW 12,000 FEET WITH NO
SIGNIFICANT WEATHER AND/OR OBSTRUCTIONS TO VISIBILITY.

WIZ001-002-006>008-014>016-023>028-301800-
NORTHWEST WISCONSIN

CITY           SKY/WX    TMP DP  RH WIND       PRES   REMARKS
SUPERIOR ARPT  CLOUDY    65  61  87 E5        29.86S
ASHLAND        CLOUDY    63  60  90 NE8       29.87S
HAYWARD        CLOUDY    63  60  90 NE8       29.86R
SIREN          CLOUDY    65  59  80 NE6       29.86S
RICE LAKE      CLOUDY    65  61  87 N7        29.85S
LADYSMITH      CLOUDY    64  61  91 N12       29.85S
EAU CLAIRE     CLOUDY    72  66  81 N5        29.81R
MENOMONIE      CLOUDY    68  64  86 NW10      29.83S
NEW RICHMOND   CLOUDY    66  62  87 N6        29.86S
OSCEOLA        CLOUDY    66  64  95 N6        29.89R
$$

WIZ003>005-009-010-017-018-301800-
NORTH CENTRAL WISCONSIN

CITY           SKY/WX    TMP DP  RH WIND       PRES   REMARKS
WOODRUFF       CLOUDY    63  61  93 N10       29.82R
RHINELANDER    LGT RAIN  65  63  93 N7        29.80S
EAGLE RIVER    CLOUDY    64  64 100 N7        29.80S
LAND O LAKES   LGT RAIN  63  61  94 N8        29.82S
PHILLIPS       CLOUDY    63  61  91 N7        29.82S
TOMAHAWK       CLOUDY    66  62  88 NW8       29.81S
MEDFORD        CLOUDY    68  64  86 NW9       29.81S
MERRILL        CLOUDY    71  66  83 NW10      29.79S
$$

WIZ029-030-035-036-043>047-301800-
CENTRAL WISCONSIN

CITY           SKY/WX    TMP DP  RH WIND       PRES   REMARKS
WAUSAU         LGT RAIN  68  66  93 NW6       29.77S FOG
MOSINEE        DRIZZLE   70  66  88 NW8       29.80R
MARSHFIELD     CLOUDY    71  66  84 NW8       29.79F
STEVENS POINT  CLOUDY    69  64  83 CALM      29.78F
WAUPACA        CLOUDY    75  67  77 NW10      29.78S
WAUTOMA        LGT RAIN  73  70  88 W7        29.79R
WISC RAPIDS    LGT RAIN  69  69 100 SW6       29.80S
CAMP DOUGLAS   CLOUDY    68  68 100 W5        29.81R
$$

WIZ011>013-019>022-031-037>040-048>050-301800-
NORTHEAST WISCONSIN

CITY           SKY/WX    TMP DP  RH WIND       PRES   REMARKS
ANTIGO         PTSUNNY   71  65  81 N5        29.79S
STURGEON BAY   CLOUDY    73  68  83 S12       29.73F
GREEN BAY      LGT RAIN  73  69  87 W12       29.74S
MANITOWOC      CLOUDY    78  69  73 MISG      29.75F HX  80
APPLETON       PTSUNNY   72  66  83 W10       29.77S
CLINTONVILLE   PTSUNNY   72  64  78 NW9       29.76S
OSHKOSH        CLOUDY    73  69  87 VRB5      29.76S
$$

WIZ032>034-041-042-053>061-301800-
SOUTHWEST WISCONSIN

CITY           SKY/WX    TMP DP  RH WIND       PRES   REMARKS
LA CROSSE      PTSUNNY   76  67  73 NW7       29.80S
SPARTA         CLOUDY    72  66  81 NW7       29.82R
VIROQUA        CLOUDY    71  69  95 NW8       29.83S
BOSCOBEL       CLOUDY    74  68  81 W6        29.82R
PRAIRIE DU CHI PTSUNNY   75  65  71 NW6       29.82R
PLATTEVILLE    CLOUDY    72  68  88 W12G17    29.85R
$$

WIZ056-057-062-063-064-067-068-301800-
SOUTH CENTRAL WISCONSIN

CITY           SKY/WX    TMP DP  RH WIND       PRES   REMARKS
BARABOO/DELLS  CLOUDY    68  65  90 NW7       29.80S
LONE ROCK      CLOUDY    77  69  76 W6        29.80S
WATERTOWN      PTSUNNY   73  68  84 SW10      29.79S
MADISON        LGT RAIN  70  67  90 SW6       29.80S FOG
MIDDLETON      CLOUDY    73  70  91 W7        29.81S
MONROE         CLOUDY    72  64  78 SW16      29.83R
JANESVILLE     PTSUNNY   73  66  78 SW12G17   29.81S
$$

WIZ051-052-058>065-066-070>072-301800-
SOUTHEAST WISCONSIN

CITY           SKY/WX    TMP DP  RH WIND       PRES   REMARKS
MILWAUKEE      HVY RAIN  71  67  87 W10G28    29.80S FOG
WAUKESHA       LGT RAIN  72  66  83 W13       29.81S FOG
MILWAUKEE/TIMM CLOUDY    73  64  73 SW9       29.80S
RACINE         PTSUNNY   78  66  66 SW21G30   29.81F HX  80
BURLINGTON     PTSUNNY   74  66  76 SW18G26   29.81S
KENOSHA        PTSUNNY   78  68  71 SW20G31   29.81F HX  80
FOND DU LAC    LGT RAIN  72  68  87 SW14      29.78R
SHEBOYGAN      CLOUDY    77  66  68 SW14      29.77S
WEST BEND      CLOUDY    75  63  64 SW9       29.79S
JUNEAU         HVY RAIN  68  67  96 SW9       29.81S
$$

LSZ147-162-301800-
LAKE SUPERIOR

STATION/POSITION TIME  TEMP    WIND        PRES    WAVE
                       AIR SEA DIR/SP/G            HT/PER
                 (UTC) (F)     (DEG/KT/KT) (MB)    (FT/S)
W MID LAKE BUOY  1650   59 57  350/  8/  8 1010.7R   1
DEVILS ISLAND    1700   61      CALM  /  1 1011.3R
PORT WING        1600   63      10/  4/  4 1011.5
SAXON HARBOR     1600   62      30/  9/ 11 1011.2R
$$

LMZ867-665-643>646-301800-
LAKE MICHIGAN

STATION/POSITION TIME  TEMP    WIND        PRES    WAVE
                       AIR SEA DIR/SP/G            HT/PER
                 (UTC) (F)     (DEG/KT/KT) (MB)    (FT/S)
N MID LAKE BUOY  1650   67 65  200/ 16/ 19 1006.8F   4/ 6
NORTHPORT PIER   1600   71     140/  4/  8 1007.1R
SISTER BAY       1541   76     250/ 13/ 14   N/A
KEWAUNEE LAKESHO 1600   64     180/ 15/ 16 1006.7S
SHEBOYGAN LAKESH 1700   70 59  190/ 11/ 13 1007.9S
ATWATER BUOY     1600   71     210/ 12/ 16 1010.1F
MILWAUKEE LAKESH 1600   76     230/ 18/ 23   N/A
S MID LAKE BUOY  1650   72 69  190/ 16/ 19 1009.9F   3/ 4
KENOSHA   LAKESH 1700   79     210/ 15/ 25 1009.1F
$$

TC  - TEMPERATURE IN CELSIUS
VSB - VISIBILITY IN STATUTE MILES
WCI - WIND CHILL INDEX
HX  - HEAT INDEX



USA.gov is the U.S. government's official web portal to all federal, state and local government web resources and services.